• In Netherlands
  • List of Countries
  • For 7 days
  • Water Temperature
  • Satellite Maps
  • Weather Map
  • Weather Widgets
  • user-avatar
    Login

    Hourly Weather Mendoza

    Today, 23 May, Tuesday

    Time Temperature Precipitation Wind Pressure Humidity
    00:00 +9°C° 0 mm 3 mps 698 mmHg 64%
    01:00 +9°C° 0 mm 3 mps 698 mmHg 65%
    02:00 +8°C° 0 mm 3 mps 697 mmHg 65%
    03:00 +8°C° 0 mm 3 mps 697 mmHg 66%
    04:00 +8°C° 0 mm 3 mps 697 mmHg 67%
    05:00 +8°C° 0 mm 2 mps 697 mmHg 67%
    06:00 +8°C° 0 mm 2 mps 697 mmHg 68%
    07:00 +8°C° 0 mm 2 mps 697 mmHg 68%
    08:00 +9°C° 0 mm 2 mps 697 mmHg 64%
    09:00 +12°C° 0 mm 2 mps 698 mmHg 59%
    10:00 +13°C° 0 mm 2 mps 698 mmHg 55%
    11:00 +13°C° 0 mm 3 mps 697 mmHg 54%
    12:00 +14°C° 0 mm 3 mps 696 mmHg 53%
    13:00 +14°C° 0 mm 3 mps 696 mmHg 52%
    14:00 +14°C° 0.1 mm 3 mps 696 mmHg 55%
    15:00 +15°C° 0.1 mm 2 mps 696 mmHg 58%
    16:00 +14°C° 0.1 mm 2 mps 695 mmHg 61%
    17:00 +13°C° 0.1 mm 2 mps 696 mmHg 64%
    18:00 +13°C° 0.1 mm 2 mps 696 mmHg 67%
    19:00 +12°C° 0.1 mm 2 mps 696 mmHg 71%
    20:00 +12°C° 0.1 mm 2 mps 696 mmHg 73%
    21:00 +10°C° 0.1 mm 2 mps 696 mmHg 76%
    22:00 +10°C° 0.1 mm 2 mps 696 mmHg 78%
    23:00 +10°C° 0.1 mm 2 mps 696 mmHg 79%

    Tomorrow, 24 May, Wednesday

    Time Temperature Precipitation Wind Pressure Humidity
    00:00 +9°C° 0.1 mm 2 mps 696 mmHg 79%
    01:00 +9°C° 0.1 mm 2 mps 696 mmHg 80%
    02:00 +9°C° 0.1 mm 2 mps 695 mmHg 80%
    03:00 +9°C° 0.1 mm 2 mps 695 mmHg 80%
    04:00 +8°C° 0.1 mm 2 mps 695 mmHg 80%
    05:00 +8°C° 0.1 mm 2 mps 695 mmHg 80%
    06:00 +8°C° 0.1 mm 2 mps 695 mmHg 79%
    07:00 +9°C° 0.1 mm 1 mps 695 mmHg 79%
    08:00 +10°C° 0.1 mm 2 mps 695 mmHg 74%
    09:00 +12°C° 0.1 mm 2 mps 695 mmHg 68%
    10:00 +13°C° 0.1 mm 2 mps 695 mmHg 63%
    11:00 +14°C° 0.1 mm 2 mps 695 mmHg 60%
    12:00 +15°C° 0.1 mm 2 mps 694 mmHg 57%
    13:00 +14°C° 0.1 mm 3 mps 694 mmHg 54%
    14:00 +14°C° 0.1 mm 3 mps 694 mmHg 56%
    15:00 +13°C° 0.1 mm 3 mps 694 mmHg 58%
    16:00 +13°C° 0.1 mm 3 mps 694 mmHg 60%
    17:00 +13°C° 0 mm 2 mps 694 mmHg 64%
    18:00 +13°C° 0 mm 2 mps 694 mmHg 67%
    19:00 +12°C° 0 mm 2 mps 695 mmHg 71%
    20:00 +11°C° 0.1 mm 3 mps 695 mmHg 75%
    21:00 +11°C° 0.1 mm 3 mps 695 mmHg 78%
    22:00 +10°C° 0.1 mm 3 mps 695 mmHg 81%
    23:00 +10°C° 0.1 mm 3 mps 695 mmHg 81%

    Day after tomorrow, 25 May, Thursday

    Time Temperature Precipitation Wind Pressure Humidity
    00:00 +10°C° 0.1 mm 3 mps 695 mmHg 81%
    01:00 +9°C° 0.1 mm 2 mps 695 mmHg 81%
    02:00 +9°C° 0.1 mm 2 mps 695 mmHg 80%
    03:00 +9°C° 0.1 mm 2 mps 695 mmHg 79%
    04:00 +9°C° 0.1 mm 2 mps 695 mmHg 78%
    05:00 +9°C° 0.1 mm 2 mps 696 mmHg 78%
    06:00 +9°C° 0.1 mm 2 mps 696 mmHg 78%
    07:00 +9°C° 0.1 mm 2 mps 697 mmHg 78%
    08:00 +10°C° 0 mm 3 mps 697 mmHg 70%
    09:00 +12°C° 0 mm 3 mps 697 mmHg 62%
    10:00 +13°C° 0 mm 3 mps 698 mmHg 54%
    11:00 +14°C° 0 mm 3 mps 698 mmHg 51%
    12:00 +16°C° 0 mm 3 mps 697 mmHg 48%
    13:00 +16°C° 0 mm 3 mps 697 mmHg 45%
    14:00 +16°C° 0 mm 3 mps 697 mmHg 47%
    15:00 +16°C° 0 mm 3 mps 697 mmHg 49%
    16:00 +14°C° 0 mm 3 mps 697 mmHg 51%
    17:00 +14°C° 0 mm 2 mps 698 mmHg 57%
    18:00 +12°C° 0 mm 2 mps 698 mmHg 63%
    19:00 +11°C° 0 mm 1 mps 699 mmHg 69%
    20:00 +11°C° 0 mm 1 mps 699 mmHg 70%
    21:00 +10°C° 0 mm 1 mps 699 mmHg 72%
    22:00 +10°C° 0 mm 1 mps 700 mmHg 73%
    23:00 +9°C° 0 mm 1 mps 700 mmHg 75%

    26 May, Friday

    Time Temperature Precipitation Wind Pressure Humidity
    00:00 +9°C° 0 mm 1 mps 699 mmHg 76%
    01:00 +8°C° 0 mm 1 mps 699 mmHg 78%
    02:00 +8°C° 0 mm 1 mps 699 mmHg 79%
    03:00 +8°C° 0 mm 1 mps 700 mmHg 80%
    04:00 +8°C° 0 mm 1 mps 700 mmHg 82%
    05:00 +7°C° 0 mm 2 mps 700 mmHg 82%
    06:00 +7°C° 0 mm 2 mps 701 mmHg 83%
    07:00 +7°C° 0 mm 2 mps 702 mmHg 84%
    08:00 +9°C° 0 mm 2 mps 702 mmHg 77%
    09:00 +12°C° 0 mm 2 mps 703 mmHg 70%
    10:00 +12°C° 0 mm 3 mps 703 mmHg 63%
    11:00 +13°C° 0 mm 3 mps 703 mmHg 60%
    12:00 +13°C° 0 mm 3 mps 703 mmHg 57%
    13:00 +13°C° 0 mm 4 mps 702 mmHg 54%
    14:00 +13°C° 0 mm 3 mps 702 mmHg 54%
    15:00 +13°C° 0 mm 3 mps 702 mmHg 53%
    16:00 +12°C° 0 mm 3 mps 702 mmHg 53%
    17:00 +12°C° 0 mm 2 mps 703 mmHg 56%
    18:00 +10°C° 0 mm 2 mps 703 mmHg 58%
    19:00 +10°C° 0 mm 1 mps 704 mmHg 61%
    20:00 +10°C° 0 mm 1 mps 704 mmHg 62%
    21:00 +8°C° 0 mm 2 mps 704 mmHg 63%
    22:00 +8°C° 0 mm 2 mps 704 mmHg 64%
    23:00 +7°C° 0 mm 2 mps 704 mmHg 65%

    27 May, Saturday

    Time Temperature Precipitation Wind Pressure Humidity
    00:00 +7°C° 0 mm 2 mps 703 mmHg 66%
    01:00 +6°C° 0 mm 2 mps 703 mmHg 67%
    02:00 +6°C° 0 mm 2 mps 702 mmHg 67%
    03:00 +6°C° 0 mm 2 mps 702 mmHg 66%
    04:00 +5°C° 0 mm 2 mps 701 mmHg 66%
    05:00 +5°C° 0 mm 2 mps 701 mmHg 66%
    06:00 +5°C° 0 mm 2 mps 701 mmHg 66%
    07:00 +6°C° 0 mm 1 mps 701 mmHg 66%
    08:00 +7°C° 0 mm 2 mps 701 mmHg 60%
    09:00 +9°C° 0 mm 2 mps 701 mmHg 54%
    10:00 +12°C° 0 mm 2 mps 702 mmHg 47%
    11:00 +13°C° 0 mm 2 mps 701 mmHg 46%
    12:00 +13°C° 0 mm 3 mps 700 mmHg 45%
    13:00 +14°C° 0 mm 4 mps 700 mmHg 43%
    14:00 +14°C° 0 mm 3 mps 699 mmHg 46%
    15:00 +13°C° 0 mm 3 mps 699 mmHg 49%
    16:00 +14°C° 0 mm 2 mps 699 mmHg 52%
    17:00 +12°C° 0 mm 2 mps 699 mmHg 55%
    18:00 +10°C° 0 mm 2 mps 700 mmHg 58%
    19:00 +9°C° 0 mm 2 mps 700 mmHg 60%
    20:00 +9°C° 0 mm 2 mps 700 mmHg 59%
    21:00 +9°C° 0 mm 1 mps 700 mmHg 58%
    22:00 +9°C° 0 mm 1 mps 700 mmHg 57%
    23:00 +9°C° 0 mm 1 mps 700 mmHg 57%

    28 May, Sunday

    Time Temperature Precipitation Wind Pressure Humidity
    00:00 +8°C° 0 mm 1 mps 700 mmHg 57%
    01:00 +8°C° 0 mm 1 mps 699 mmHg 56%
    02:00 +8°C° 0 mm 1 mps 699 mmHg 56%
    03:00 +8°C° 0 mm 1 mps 699 mmHg 56%
    04:00 +7°C° 0 mm 2 mps 699 mmHg 56%
    05:00 +7°C° 0 mm 2 mps 699 mmHg 57%
    06:00 +7°C° 0 mm 2 mps 699 mmHg 57%
    07:00 +7°C° 0 mm 2 mps 699 mmHg 57%
    08:00 +9°C° 0 mm 2 mps 699 mmHg 51%
    09:00 +12°C° 0 mm 2 mps 699 mmHg 46%
    10:00 +14°C° 0 mm 2 mps 699 mmHg 40%
    11:00 +15°C° 0 mm 2 mps 699 mmHg 39%
    12:00 +16°C° 0 mm 2 mps 698 mmHg 38%
    13:00 +16°C° 0 mm 2 mps 698 mmHg 37%
    14:00 +16°C° 0 mm 2 mps 698 mmHg 40%
    15:00 +15°C° 0 mm 1 mps 698 mmHg 44%
    16:00 +14°C° 0 mm 1 mps 698 mmHg 48%
    17:00 +13°C° 0 mm 1 mps 698 mmHg 51%
    18:00 +12°C° 0 mm 2 mps 699 mmHg 54%
    19:00 +9°C° 0 mm 2 mps 699 mmHg 58%
    20:00 +9°C° 0 mm 3 mps 700 mmHg 59%
    21:00 +9°C° 0 mm 3 mps 700 mmHg 60%
    22:00 +8°C° 0 mm 3 mps 701 mmHg 62%
    23:00 +8°C° 0 mm 3 mps 701 mmHg 63%
    Show more